{"data":{"norad_id":61977,"intl_designator":"2024-210U","name":"STARLINK-32607","alt_names":[],"object_type":"PAYLOAD","status":"ACTIVE","operator":null,"country":"US","launch_date":"2024-11-14","launch_site_code":"AFETR","launch_vehicle":null,"mission":null,"orbit_class":"UNKNOWN","rcs_meters":null,"size_class":null,"mass_kg":null,"dimensions":null,"purposes":["comms"],"wikipedia_slug":null,"has_3d_model":false,"image_url":null,"decayed_at":null,"tle_current":{"epoch":"2026-05-25T03:55:44.274432Z","epoch_age_seconds":54927,"freshness":"FRESH","line1":"1 61977U 24210U   26145.16370688  .00021613  00000+0  79222-3 0  9993","line2":"2 61977  43.0008 108.1082 0001232 273.6867  86.3844 15.27596651 86615","mean_motion":15.27596651,"eccentricity":0.0001232,"inclination_deg":43.0008,"raan_deg":108.1082,"arg_perigee_deg":273.6867,"mean_anomaly_deg":86.3844,"bstar":0.00079222,"rev_number":8661,"period_min":94.265721193965,"perigee_km":482.15394542393,"apogee_km":483.84452939283,"semimajor_km":6861.1362374084,"source":"CELESTRAK","updated_at":"2026-05-25T13:38:19.516244Z"}}}